Hourly Data Report for October 10, 2017

All times are specified in Local Standard Time (LST). Add 1 hour to adjust for Daylight Saving Time where and when it is observed.

PANGNIRTUNG
NUNAVUT

66°08'36.300" N
65°42'40.500" W
22.60 m
2403049
71826
WXP

Download Data

Hourly Data (October 2017)
Hourly Data Report for October 10, 2017
Temp Definition
°C
Dew Point Temp Definition
°C
Rel Hum Definition
%
Wind Dir Definition
10's deg

Wind Spd Definition
km/h
Visibility Definition
km
Stn Press Definition
kPa
Hmdx Definition


Wind Chill Definition


Weather Definition


TIME
00:00 -6.4 -11.3 68 24 3   100.53   -8 LegendNANA
01:00 -7.5 -13.6 61 11 13   100.55   -13 LegendNANA
02:00 -5.8 -11.7 63 26 5   100.55   -8 LegendNANA
03:00 -6.9 -13.7 58 11 14   100.57   -13 LegendNANA
04:00 -5.7 -12.6 58 12 12   100.53   -11 LegendNANA
05:00 -6.3 -13.4 57 9 8   100.49   -10 LegendNANA
06:00 -6.0 -13.1 57 11 9   100.49   -10 LegendNANA
07:00 -6.3 -12.9 59 18 1   100.47   -7 LegendNANA
08:00 -7.0 -12.6 64 20 1   100.46   -8 LegendNANA
09:00 -5.8 -14.3 51 12 12   100.44   -11 LegendNANA
10:00 -5.6 -13.5 54 11 6   100.43   -8 LegendNANA
11:00 -5.2 -14.1 50 11 3   100.41   -7 LegendNANA
12:00 -4.6 -13.5 50 12 3   100.39   -6 LegendNANA
13:00 -5.1 -13.0 54 12 11   100.39   -10 LegendNANA
14:00 -5.3 -12.8 55 12 11   100.38   -10 LegendNANA
15:00 -4.8 -11.6 59 13 6   100.39   -8 LegendNANA
16:00 -5.6 -12.7 58 17 2   100.41   -7 LegendNANA
17:00 -4.6 -12.4 54 11 3   100.43   -6 LegendNANA
18:00 -5.2 -11.2 62 13 9   100.43   -9 LegendNANA
19:00 -4.7 -11.8 58 13 8   100.43   -8 LegendNANA
20:00 -4.7 -11.7 58 11 7   100.42   -8 LegendNANA
21:00 -5.1 -11.7 60 13 8   100.43   -9 LegendNANA
22:00 -5.6 -12.9 56 13 8   100.41   -9 LegendNANA
23:00 -5.9 -13.1 57 13 7   100.41   -9 LegendNANA

Notes on Data Quality.

Legend

  • E = Estimated
  • M = Missing
  • NA = Not Available
  • ‡ = Partner data that is not subject to review by the National Climate Archives
Date modified: